This is the latest recevied weather packets stored in our database for station/object W6MAF. If no packets are shown the sender has not sent any weather packets the latest 10 day(s).
| Time | Temp. | Humidity | Pressure | Rain* | Wind** | Luminosity | Snow |
|---|---|---|---|---|---|---|---|
| 1788497304 | 16.67° C | 36% | - | 0 mm | 6.71 m/s, 215° | - | - |
| 1788497006 | 16.67° C | 36% | - | 0 mm | 4.47 m/s, 188° | - | - |
| 1788496709 | 16.67° C | 35% | - | 0 mm | 5.81 m/s, 203° | - | - |
| 1788496411 | 17.22° C | 35% | - | 0 mm | 5.36 m/s, 203° | - | - |
| 1788496110 | 17.22° C | 35% | - | 0 mm | 5.81 m/s, 221° | - | - |
| 1788495812 | 17.22° C | 34% | - | 0 mm | 5.36 m/s, 217° | - | - |
| 1788495514 | 17.78° C | 33% | - | 0 mm | 4.92 m/s, 210° | - | - |
| 1788495217 | 17.78° C | 32% | - | 0 mm | 5.36 m/s, 215° | - | - |
| 1788494919 | 17.78° C | 31% | - | 0 mm | 7.15 m/s, 181° | - | - |
| 1788494621 | 17.78° C | 31% | - | 0 mm | 6.71 m/s, 201° | - | - |
| 1788494320 | 18.33° C | 31% | - | 0 mm | 6.26 m/s, 179° | - | - |
| 1788494023 | 18.33° C | 31% | - | 0 mm | 5.36 m/s, 198° | - | - |
| 1788493725 | 18.33° C | 31% | - | 0 mm | 5.81 m/s, 193° | - | - |
| 1788493427 | 18.33° C | 30% | - | 0 mm | 6.26 m/s, 215° | - | - |
| 1788493130 | 18.33° C | 30% | - | 0 mm | 5.36 m/s, 214° | - | - |
| 1788492832 | 18.33° C | 31% | - | 0 mm | 4.92 m/s, 191° | - | - |
| 1788492531 | 18.33° C | 32% | - | 0 mm | 6.26 m/s, 228° | - | - |
| 1788492233 | 18.89° C | 33% | - | 0 mm | 4.92 m/s, 215° | - | - |
| 1788491936 | 18.89° C | 32% | - | 0 mm | 5.36 m/s, 201° | - | - |
| 1788491638 | 18.89° C | 32% | - | 0 mm | 4.02 m/s, 226° | - | - |
| 1788491340 | 18.89° C | 31% | - | 0 mm | 4.02 m/s, 218° | - | - |
| 1788491042 | 18.89° C | 30% | - | 0 mm | 4.02 m/s, 207° | - | - |
| 1788490741 | 18.89° C | 30% | - | 0 mm | 4.47 m/s, 207° | - | - |
| 1788490444 | 19.44° C | 29% | - | 0 mm | 5.36 m/s, 203° | - | - |
| 1788490146 | 19.44° C | 28% | - | 0 mm | 4.47 m/s, 219° | - | - |
* Rain latest hour (hover to see other rain measurements)
** Current wind speed in m/s (hover to see current wind gust speed)